Location: Newark
(43.0658°N, 122.2322°W)
Time: 17:37:09
(UTC+00:00)

STARLINK-1756 - Pass Details

Date: 21 September 2020
Orbit: 378 x 381 km, 53.0° (Epoch: 28 October)

Event Time Altitude Azimuth Distance (km) Brightness Sun altitude
Exits shadow 12:05:19 16° 341° (NNW) 1,184 5.3 -20.5°
Maximum altitude 12:05:45 16° 351° (N) 1,169 5.4 -20.5°
Drops below altitude 10° 12:07:56 10° 32° (NNE) 1,485 6.6 -20.1°
Sets 12:10:36 0° 55° (NE) 2,345 8.3 -19.6°
